GW1511 Weather Reports


time (UTC)temp
F
wind
direction
speed
knots
gust
knots
rain 1hr
in
rain 24hr
in
rain mn
in
humidity
%
barometer
mb
20260507152554 75 280 0.0 0.0 0.00 0.01 0.01 44 1009.8
20260507152055 75 330 0.0 0.0 0.00 0.01 0.01 42 1009.8
20260507151554 76 325 0.0 0.0 0.00 0.01 0.01 43 1009.7
20260507151053 75 288 0.0 0.0 0.00 0.01 0.01 43 1009.8
20260507150552 75 296 0.0 0.0 0.00 0.01 0.01 44 1009.8
20260507150053 75 306 0.0 0.0 0.00 0.01 0.01 45 1009.8
20260507145553 75 281 0.0 0.0 0.00 0.01 0.01 45 1009.8
20260507145052 75 283 0.0 0.0 0.00 0.01 0.01 45 1009.9
20260507144553 74 331 0.0 0.0 0.00 0.01 0.01 46 1009.8
20260507144052 74 323 0.0 0.0 0.00 0.01 0.01 47 1009.9
20260507143552 75 341 0.0 0.0 0.00 0.01 0.01 46 1009.9
20260507143052 75 324 0.0 0.0 0.00 0.01 0.01 45 1009.9
20260507142552 75 318 0.0 0.0 0.00 0.01 0.01 46 1010.0
20260507142052 74 311 0.0 0.0 0.00 0.01 0.01 44 1010.0
20260507141559 74 307 0.0 0.0 0.00 0.01 0.01 44 1010.0
20260507141051 75 257 0.0 0.0 0.00 0.01 0.01 44 1010.0
20260507140550 75 306 0.0 0.0 0.00 0.01 0.01 47 1010.0
20260507140106 74 143 0.0 0.0 0.00 0.01 0.01 45 1010.0
20260507135547 74 275 0.0 0.0 0.00 0.01 0.01 46 1010.0
20260507135048 74 304 0.0 0.0 0.00 0.01 0.01 46 1010.0
20260507134548 74 287 0.0 0.0 0.00 0.01 0.01 46 1010.0
20260507134048 73 283 0.0 0.0 0.00 0.01 0.01 47 1010.0
20260507133548 73 273 0.0 0.0 0.00 0.01 0.01 48 1010.1
20260507133048 73 313 0.0 0.0 0.00 0.01 0.01 47 1010.1
20260507132547 73 330 0.0 0.0 0.00 0.01 0.01 45 1010.2
20260507132046 73 302 0.0 0.0 0.00 0.01 0.01 45 1010.2
20260507131554 73 317 0.0 0.0 0.00 0.01 0.01 48 1010.1
20260507131049 73 326 0.0 0.0 0.00 0.01 0.01 49 1010.2
20260507130545 73 314 0.0 0.0 0.00 0.01 0.01 48 1010.2
20260507130052 73 333 0.0 0.0 0.00 0.01 0.01 50 1010.1
20260507125547 73 323 0.0 0.0 0.00 0.01 0.01 49 1010.2
20260507125045 73 275 0.0 0.0 0.00 0.01 0.01 50 1010.2
20260507124601 74 323 0.0 0.0 0.00 0.01 0.01 48 1010.2
20260507124045 73 263 0.0 0.0 0.00 0.01 0.01 50 1010.2
20260507123545 74 325 0.0 0.0 0.00 0.01 0.01 48 1010.2
20260507123054 74 234 0.0 0.0 0.00 0.01 0.01 48 1010.2
20260507122545 74 330 0.0 0.0 0.00 0.01 0.01 49 1010.3
20260507122045 74 283 0.0 0.0 0.00 0.01 0.01 50 1010.3
20260507121547 73 269 0.0 0.0 0.00 0.01 0.01 49 1010.3
20260507121042 73 360 0.0 0.0 0.00 0.01 0.01 49 1010.2
20260507120540 73 313 0.0 0.0 0.00 0.01 0.01 53 1010.3
20260507120043 73 323 0.0 0.0 0.00 0.01 0.01 52 1010.4
20260507115539 72 302 0.0 0.0 0.00 0.02 0.01 53 1010.4
20260507115038 72 265 0.0 0.0 0.00 0.02 0.01 52 1010.5
20260507114544 72 249 0.0 0.0 0.00 0.02 0.01 53 1010.4
20260507114040 72 192 0.0 0.0 0.00 0.02 0.01 54 1010.5
20260507113538 72 248 0.0 0.0 0.00 0.02 0.01 54 1010.5
20260507113039 72 227 0.0 0.0 0.00 0.02 0.01 53 1010.5
20260507112537 72 277 0.0 0.0 0.00 0.02 0.01 55 1010.6
20260507112035 72 331 0.0 0.0 0.00 0.02 0.01 54 1010.7
20260507111535 71 318 0.0 0.0 0.00 0.02 0.01 54 1010.7
20260507111035 71 326 0.0 0.0 0.00 0.02 0.01 55 1010.7
20260507110535 71 330 0.0 0.0 0.00 0.02 0.01 56 1010.8
20260507110035 71 294 0.0 0.0 0.00 0.02 0.01 56 1010.9
20260507105533 71 243 0.0 0.0 0.00 0.02 0.01 56 1010.9
20260507105032 71 323 0.0 0.0 0.00 0.02 0.01 57 1010.9
20260507104532 71 299 0.0 0.0 0.00 0.02 0.01 58 1010.9
20260507104031 70 307 0.0 0.0 0.00 0.02 0.01 61 1010.9
20260507103530 70 299 0.0 0.0 0.00 0.02 0.01 61 1011.0
20260507103029 70 265 0.0 0.0 0.00 0.02 0.01 61 1011.0
20260507102529 70 269 0.0 0.0 0.00 0.02 0.01 61 1011.1
20260507102028 69 304 0.0 0.0 0.00 0.02 0.01 60 1011.2
20260507101534 69 306 0.0 0.0 0.00 0.02 0.01 62 1011.3
20260507101027 69 306 0.0 0.0 0.00 0.02 0.01 62 1011.2
20260507100526 69 207 0.0 0.0 0.00 0.02 0.01 62 1011.2
20260507100032 69 308 0.0 0.0 0.00 0.02 0.01 66 1011.3
20260507095525 69 304 0.0 0.0 0.00 0.02 0.01 66 1011.5
20260507095025 69 307 0.0 0.0 0.00 0.02 0.01 66 1011.4
20260507094524 69 307 0.0 0.0 0.00 0.02 0.01 66 1011.3
20260507094022 68 304 0.0 0.0 0.00 0.02 0.01 63 1011.4
20260507093523 68 237 0.0 0.0 0.00 0.02 0.01 65 1011.4
20260507093035 68 256 0.0 0.0 0.00 0.02 0.01 66 1011.3
20260507092524 68 249 0.0 0.0 0.00 0.02 0.01 65 1011.2
20260507092021 67 296 0.0 0.0 0.00 0.02 0.01 64 1011.2
20260507091521 67 291 0.0 0.0 0.00 0.02 0.01 67 1011.1
20260507091021 67 291 0.0 0.0 0.00 0.02 0.01 65 1011.2
20260507090523 66 296 0.0 0.0 0.00 0.02 0.01 65 1011.2
20260507090029 66 272 0.0 0.0 0.00 0.02 0.01 67 1011.1
20260507085520 68 201 0.0 0.0 0.00 0.02 0.01 68 1011.2
20260507085018 68 211 0.0 0.0 0.00 0.02 0.01 68 1011.2
20260507084517 68 197 0.0 0.0 0.00 0.02 0.01 70 1011.2
20260507084022 68 182 0.0 0.0 0.00 0.02 0.01 71 1011.1
20260507083515 66 311 0.0 0.0 0.00 0.02 0.01 68 1011.2
20260507083031 66 307 0.0 0.0 0.00 0.02 0.01 70 1011.2
20260507082514 65 283 0.0 0.0 0.00 0.02 0.01 70 1011.1
20260507082013 65 286 0.0 0.0 0.00 0.02 0.01 72 1011.1
20260507081514 65 275 0.0 0.0 0.00 0.02 0.01 70 1011.2
20260507081012 64 265 0.0 0.0 0.00 0.02 0.01 71 1011.2
20260507080511 64 315 0.0 0.0 0.00 0.02 0.01 71 1011.2
20260507080009 64 306 0.0 0.0 0.00 0.02 0.01 73 1011.2
20260507075508 63 247 0.0 0.0 0.00 0.02 0.01 72 1011.3
20260507075008 63 277 0.0 0.0 0.00 0.02 0.01 74 1011.2
20260507074520 63 261 0.0 0.0 0.00 0.02 0.01 74 1011.2
20260507074007 63 257 0.0 0.0 0.00 0.02 0.01 76 1011.2
20260507073507 62 313 0.0 0.0 0.00 0.02 0.01 76 1011.2
20260507073006 62 222 0.0 0.0 0.00 0.02 0.01 81 1011.2
20260507072506 61 284 0.0 0.0 0.00 0.02 0.01 83 1011.1
20260507072006 61 275 0.0 0.0 0.00 0.02 0.01 84 1011.1
20260507071505 60 263 0.0 0.0 0.00 0.02 0.01 88 1011.1
20260507071008 60 223 0.0 0.0 0.00 0.02 0.01 88 1011.1
20260507070502 59 118 0.0 0.0 0.00 0.02 0.01 89 1011.0
20260507070004 58 261 0.0 0.0 0.00 0.02 0.01 90 1011.0
20260507065500 58 257 0.0 0.0 0.00 0.02 0.01 90 1011.0
20260507065002 57 281 0.0 0.0 0.00 0.02 0.01 89 1011.0
20260507064500 58 249 0.0 0.0 0.00 0.02 0.01 88 1010.9
20260507064101 58 225 0.0 0.0 0.00 0.02 0.01 81 1010.9
20260507063601 58 257 0.0 0.0 0.00 0.02 0.01 73 1010.9
20260507063101 58 59 0.0 0.0 0.00 0.02 0.01 97 1010.9
20260507062558 57 59 0.0 0.0 0.00 0.02 0.01 98 1010.8
20260507062057 57 59 0.0 0.0 0.00 0.02 0.01 98 1010.7
20260507061557 56 59 0.0 0.0 0.00 0.02 0.01 98 1010.7
20260507061055 55 59 0.0 0.0 0.00 0.02 0.01 98 1010.7
20260507060553 55 59 0.0 0.0 0.00 0.02 0.01 98 1010.7
20260507060052 55 59 0.0 0.0 0.00 0.02 0.01 98 1010.7
20260507055551 55 59 0.0 0.0 0.00 0.04 0.01 98 1010.7
20260507055050 55 59 0.0 0.0 0.00 0.04 0.01 98 1010.6
20260507054557 53 59 0.0 0.0 0.00 0.04 0.01 98 1010.6
20260507054049 53 59 0.0 0.0 0.00 0.04 0.01 98 1010.6
20260507053548 53 59 0.0 0.0 0.00 0.04 0.01 98 1010.5
20260507053048 53 47 0.0 0.0 0.01 0.04 0.01 98 1010.4
20260507052550 53 47 0.0 0.0 0.01 0.04 0.01 98 1010.3
20260507052046 52 47 0.0 0.0 0.01 0.04 0.01 98 1010.2
20260507051545 52 47 0.0 0.0 0.01 0.04 0.01 98 1010.2
20260507051044 51 47 0.0 0.0 0.01 0.04 0.01 98 1010.2
20260507050544 50 47 0.0 0.0 0.01 0.04 0.01 97 1010.2
20260507050043 49 47 0.0 0.0 0.01 0.04 0.01 97 1010.1
20260507045542 49 47 0.0 0.0 0.01 0.04 0.01 97 1010.1
20260507045041 49 47 0.0 0.0 0.01 0.04 0.01 97 1010.0
20260507044540 49 47 0.0 0.0 0.01 0.04 0.01 97 1009.9
20260507044040 49 47 0.0 0.0 0.01 0.04 0.01 97 1009.8
20260507043538 49 47 0.0 0.0 0.01 0.04 0.01 97 1009.9
20260507043038 48 47 0.0 0.0 0.00 0.03 0.00 97 1009.9
20260507042536 48 47 0.0 0.0 0.00 0.03 0.00 97 1009.8
20260507042035 48 47 0.0 0.0 0.00 0.03 0.00 97 1009.7
20260507041534 48 47 0.0 0.0 0.00 0.03 0.00 97 1009.6
20260507041033 48 47 0.0 0.0 0.00 0.03 0.00 97 1009.5
20260507040533 48 47 0.0 0.0 0.00 0.03 0.00 97 1009.5
20260507040035 48 47 0.0 0.0 0.00 0.03 0.00 97 1009.5
20260507035532 48 47 0.0 0.0 0.00 0.06 0.00 97 1009.4
20260507035031 48 47 0.0 0.0 0.00 0.06 0.00 97 1009.4
20260507034531 48 47 0.0 0.0 0.00 0.06 0.00 97 1009.4
20260507034031 48 47 0.0 0.0 0.00 0.06 0.00 97 1009.4
20260507033533 48 47 0.0 0.0 0.00 0.06 0.00 97 1009.4
20260507033032 48 47 0.0 0.0 0.00 0.06 0.00 97 1009.3
20260507032529 49 47 0.0 0.0 0.00 0.06 0.00 97 1009.3
20260507032032 49 47 0.0 0.0 0.00 0.06 0.00 97 1009.4
20260507031529 49 47 0.0 0.0 0.00 0.06 0.00 97 1009.3
20260507031029 48 47 0.0 0.0 0.00 0.06 0.00 97 1009.3
20260507030528 49 47 0.0 0.0 0.00 0.06 0.00 96 1009.3
20260507030030 49 47 0.0 0.0 0.00 0.06 0.00 96 1009.4
20260507025526 49 47 0.0 0.0 0.00 0.07 0.00 96 1009.4
20260507025025 49 47 0.0 0.0 0.00 0.07 0.00 96 1009.4
20260507024525 49 47 0.0 0.0 0.00 0.07 0.00 97 1009.3
20260507024027 50 47 0.0 0.0 0.00 0.07 0.00 97 1009.3
20260507023524 50 47 0.0 0.0 0.00 0.07 0.00 96 1009.3
20260507023028 50 47 0.0 0.0 0.00 0.07 0.00 96 1009.3
20260507022527 50 47 0.0 0.0 0.00 0.07 0.00 96 1009.3
20260507022023 50 47 0.0 0.0 0.00 0.07 0.00 96 1009.2
20260507021522 51 47 0.0 0.0 0.00 0.07 0.00 96 1009.3
20260507021021 51 47 0.0 0.0 0.00 0.07 0.00 97 1009.4
20260507020521 52 47 0.0 0.0 0.00 0.07 0.00 97 1009.3
20260507020021 51 47 0.0 0.0 0.00 0.07 0.00 97 1009.3
20260507015524 51 47 0.0 0.0 0.00 0.07 0.00 97 1009.4
20260507015020 51 47 0.0 0.0 0.00 0.07 0.00 96 1009.3
20260507014518 52 47 0.0 0.0 0.00 0.07 0.00 96 1009.2
20260507014018 52 47 0.0 0.0 0.00 0.07 0.00 96 1009.2
20260507013517 51 47 0.0 0.0 0.00 0.07 0.00 96 1009.1
20260507013019 51 47 0.0 0.0 0.00 0.07 0.00 96 1009.1
20260507012518 52 47 0.0 0.0 0.00 0.07 0.00 96 1009.1
20260507012017 52 47 0.0 0.0 0.00 0.07 0.00 96 1009.0
20260507011530 52 47 0.0 0.0 0.00 0.07 0.00 96 1009.1
20260507011014 52 47 0.0 0.0 0.00 0.07 0.00 96 1009.0
20260507010513 53 47 0.0 0.0 0.00 0.07 0.00 96 1009.0
20260507010013 53 47 0.0 0.0 0.00 0.07 0.00 96 1009.0
20260507005515 53 47 0.0 0.0 0.00 0.07 0.00 96 1009.0
20260507005010 54 47 0.0 0.0 0.00 0.07 0.00 96 1009.0
20260507004517 54 47 0.0 0.0 0.00 0.07 0.00 96 1009.1
20260507004010 55 47 0.0 0.0 0.00 0.07 0.00 96 1009.0
20260507003510 55 47 0.0 0.0 0.00 0.07 0.00 96 1009.0
20260507003016 55 47 0.0 0.0 0.00 0.07 0.00 96 1009.0
20260507002509 54 47 0.0 0.0 0.00 0.07 0.00 96 1009.0
20260507002011 54 48 0.0 0.0 0.00 0.07 0.00 96 1009.1
20260507001509 54 48 0.0 0.0 0.00 0.07 0.00 96 1009.0
20260507001009 56 269 0.0 0.0 0.00 0.07 0.00 80 1009.1
20260507000506 56 269 0.0 0.0 0.00 0.07 0.00 80 1009.1
20260507000006 56 269 0.0 0.0 0.00 0.07 0.00 80 1009.0
20260506235506 56 28 0.0 0.0 0.00 0.07 0.00 80 1009.0
20260506235005 56 28 0.0 0.0 0.00 0.07 0.00 82 1009.0
20260506234509 57 28 0.0 0.0 0.00 0.07 0.00 80 1008.9
20260506234003 57 28 0.0 0.0 0.00 0.07 0.00 80 1008.9
20260506233503 58 28 0.0 0.0 0.00 0.07 0.00 79 1009.0
20260506233002 57 28 0.0 0.0 0.00 0.07 0.00 80 1009.1
20260506232502 58 28 0.0 0.0 0.00 0.07 0.00 79 1009.0
20260506232000 58 28 0.0 0.0 0.00 0.07 0.00 79 1009.0
20260506231600 58 28 0.0 0.0 0.00 0.07 0.00 79 1008.9
20260506231100 58 28 0.0 0.0 0.00 0.07 0.00 80 1008.8
20260506230600 58 28 0.0 0.0 0.00 0.07 0.00 81 1008.8
20260506230058 58 28 0.0 0.0 0.00 0.07 0.00 81 1008.9
20260506225557 58 28 0.0 0.0 0.00 0.07 0.00 80 1008.8
20260506225057 58 28 0.0 0.0 0.00 0.07 0.00 81 1008.8
20260506224557 58 30 0.0 0.0 0.00 0.07 0.00 81 1008.8
20260506224055 58 38 0.0 0.0 0.00 0.07 0.00 81 1008.8
20260506223555 58 38 0.0 0.0 0.00 0.07 0.00 82 1008.9
20260506223056 58 27 0.0 0.0 0.00 0.07 0.00 82 1008.9
20260506222555 59 36 0.0 0.0 0.00 0.07 0.00 82 1008.9
20260506222055 58 31 0.0 0.0 0.00 0.07 0.00 82 1008.9
20260506221555 59 31 0.0 0.0 0.00 0.07 0.00 83 1008.8
20260506221053 59 31 0.0 0.0 0.00 0.07 0.00 84 1008.9
20260506220552 59 31 0.0 0.0 0.00 0.07 0.00 84 1008.9
20260506220059 59 31 0.0 0.0 0.00 0.07 0.00 84 1008.9
20260506215549 59 34 0.0 0.0 0.00 0.07 0.07 85 1008.9
20260506215048 59 346 0.0 0.0 0.00 0.07 0.07 86 1008.9
20260506214548 59 346 0.0 0.0 0.00 0.07 0.07 86 1008.7
20260506214045 59 98 0.0 0.0 0.00 0.07 0.07 86 1008.7
20260506213543 59 98 0.0 0.0 0.00 0.07 0.07 87 1008.8
20260506213044 59 98 0.0 0.0 0.00 0.07 0.07 87 1008.6
20260506212541 59 98 0.0 0.0 0.00 0.07 0.07 87 1008.6
20260506212043 59 98 0.0 0.0 0.00 0.07 0.07 87 1008.7
20260506211538 59 98 0.0 0.0 0.00 0.07 0.07 88 1008.7
20260506211036 59 98 0.0 0.0 0.00 0.07 0.07 88 1008.7
20260506210538 59 98 0.0 0.0 0.00 0.07 0.07 88 1008.6
20260506210033 59 98 0.0 0.0 0.00 0.07 0.07 88 1008.6
20260506205531 59 98 0.0 0.0 0.00 0.07 0.07 88 1008.6
20260506205031 60 98 0.0 0.0 0.00 0.07 0.07 89 1008.6
20260506204531 60 98 0.0 0.0 0.00 0.07 0.07 89 1008.5
20260506204032 60 98 0.0 0.0 0.00 0.07 0.07 89 1008.4
20260506203526 60 135 0.0 0.0 0.00 0.07 0.07 89 1008.4
20260506203033 60 122 0.0 0.0 0.00 0.07 0.07 89 1008.3
20260506202525 60 130 0.0 0.0 0.00 0.07 0.07 89 1008.3
20260506202022 60 76 0.0 0.0 0.00 0.07 0.07 89 1008.3
20260506201522 61 76 0.0 0.0 0.00 0.07 0.07 89 1008.3
20260506201019 61 76 0.0 0.0 0.00 0.07 0.07 89 1008.3
20260506200517 61 76 0.0 0.0 0.00 0.07 0.07 89 1008.3
20260506200019 61 77 0.0 0.0 0.00 0.07 0.07 89 1008.3
20260506195515 61 77 0.0 0.0 0.00 0.07 0.07 89 1008.2
20260506195013 61 80 0.0 0.0 0.00 0.07 0.07 89 1008.0
20260506194512 61 80 0.0 0.0 0.00 0.07 0.07 89 1008.0
20260506194010 61 351 0.0 0.0 0.00 0.07 0.07 89 1008.0
20260506193508 61 332 0.0 0.0 0.00 0.07 0.07 89 1007.9
20260506193007 61 111 0.0 0.0 0.00 0.07 0.07 89 1007.8
20260506192506 61 112 0.0 0.0 0.00 0.07 0.07 88 1007.6
20260506192004 61 112 0.0 0.0 0.00 0.07 0.07 88 1007.6
20260506191504 61 111 0.0 0.0 0.00 0.07 0.07 88 1007.6
20260506191001 62 112 0.0 0.0 0.00 0.07 0.07 87 1007.5
20260506190600 62 112 0.0 0.0 0.00 0.07 0.07 87 1007.4
20260506190058 62 112 0.0 0.0 0.00 0.07 0.07 86 1007.4
20260506185557 62 112 0.0 0.0 0.00 0.07 0.07 85 1007.3
20260506185058 62 112 0.0 0.0 0.00 0.07 0.07 85 1007.3
20260506184600 62 112 0.0 0.0 0.00 0.07 0.07 85 1007.2
20260506184053 62 112 0.0 0.0 0.00 0.07 0.07 84 1007.2
20260506183552 63 112 0.0 0.0 0.00 0.07 0.07 84 1007.1
20260506183053 63 113 0.0 0.0 0.00 0.07 0.07 83 1007.1
20260506182548 64 113 0.0 0.0 0.00 0.07 0.07 82 1007.0
20260506182048 64 107 0.0 0.0 0.00 0.07 0.07 81 1006.9
20260506181546 65 109 0.0 0.0 0.00 0.07 0.07 81 1006.8
20260506181045 65 101 0.0 0.0 0.00 0.07 0.07 80 1006.8
20260506180544 66 101 0.0 0.0 0.00 0.07 0.07 79 1006.7
20260506180043 65 113 0.0 0.0 0.00 0.07 0.07 78 1006.6
20260506175539 65 113 0.0 0.0 0.00 0.07 0.07 78 1006.6
20260506175040 65 101 0.0 0.0 0.00 0.07 0.07 77 1006.6
20260506174537 65 148 0.0 0.0 0.00 0.07 0.07 77 1006.5
20260506174035 65 115 0.0 0.0 0.00 0.07 0.07 75 1006.5
20260506173534 65 115 0.0 0.0 0.00 0.07 0.07 74 1006.5
20260506173042 65 118 0.0 0.0 0.00 0.07 0.07 74 1006.4
20260506172531 64 121 0.0 0.0 0.00 0.07 0.07 74 1006.4
20260506172031 64 100 0.0 0.0 0.00 0.07 0.07 74 1006.4
20260506171529 64 87 0.0 0.0 0.00 0.07 0.07 73 1006.5
20260506171028 64 33 0.0 0.0 0.00 0.07 0.07 72 1006.5
20260506170529 64 103 0.0 0.0 0.00 0.07 0.07 74 1006.5
20260506170024 64 98 0.0 0.0 0.00 0.07 0.07 74 1006.4
20260506165522 65 129 0.0 0.0 0.00 0.07 0.07 74 1006.3
20260506165021 65 52 0.0 0.0 0.00 0.07 0.07 74 1006.4
20260506164520 65 271 0.0 0.0 0.00 0.07 0.07 74 1006.4
20260506164019 64 271 0.0 0.0 0.00 0.07 0.07 75 1006.3
20260506163518 64 306 0.0 0.0 0.00 0.07 0.07 74 1006.4
20260506163034 64 348 0.0 0.0 0.00 0.07 0.07 72 1006.3
20260506162514 64 27 0.0 0.0 0.00 0.07 0.07 74 1006.3
20260506162017 65 202 0.0 0.0 0.00 0.07 0.07 74 1006.6
20260506161515 66 327 0.0 0.0 0.00 0.07 0.07 74 1006.5
20260506161010 67 56 0.0 0.0 0.00 0.07 0.07 74 1006.6
20260506160509 69 344 0.0 0.0 0.00 0.07 0.07 76 1006.5
20260506160008 69 264 0.0 0.0 0.00 0.07 0.07 75 1006.1
20260506155504 70 152 0.0 0.0 0.00 0.07 0.07 75 1006.0
20260506155004 70 138 0.0 0.0 0.00 0.07 0.07 75 1006.1
20260506154507 69 122 0.0 0.0 0.00 0.07 0.07 74 1006.1
20260506154002 69 179 0.0 0.0 0.00 0.07 0.07 75 1006.1
20260506153600 69 123 0.0 0.0 0.00 0.07 0.07 77 1006.2
20260506153126 69 137 0.0 0.0 0.00 0.07 0.07 77 1006.2